TimeCDT,TemperatureF,Dew PointF,Humidity,Sea Level PressureIn,VisibilityMPH,Wind Direction,Wind SpeedMPH,Gust SpeedMPH,PrecipitationIn,Events,Conditions,WindDirDegrees,DateUTC
12:15 AM,75.2,73.4,94,29.98,5.0,Calm,Calm,-,N/A,,Clear,0,2013-08-30 05:15:00
12:35 AM,75.2,73.4,94,29.98,5.0,Calm,Calm,-,N/A,,Clear,0,2013-08-30 05:35:00
12:55 AM,75.2,73.4,94,29.98,5.0,Calm,Calm,-,N/A,,Clear,0,2013-08-30 05:55:00
1:15 AM,73.4,73.4,100,29.98,5.0,SSE,3.5,-,N/A,,Clear,150,2013-08-30 06:15:00
1:35 AM,73.4,73.4,100,29.97,4.0,Calm,Calm,-,N/A,,Clear,0,2013-08-30 06:35:00
1:55 AM,73.4,73.4,100,29.97,4.0,Calm,Calm,-,N/A,,Clear,0,2013-08-30 06:55:00
2:15 AM,73.4,73.4,100,29.97,3.0,Calm,Calm,-,N/A,,Clear,0,2013-08-30 07:15:00
2:35 AM,73.4,71.6,94,29.97,3.0,Calm,Calm,-,N/A,,Clear,0,2013-08-30 07:35:00
2:55 AM,73.4,71.6,94,29.97,4.0,Calm,Calm,-,N/A,,Clear,0,2013-08-30 07:55:00
3:15 AM,73.4,73.4,100,29.97,5.0,Calm,Calm,-,N/A,,Clear,0,2013-08-30 08:15:00
3:35 AM,73.4,71.6,94,29.96,5.0,Calm,Calm,-,N/A,,Clear,0,2013-08-30 08:35:00
3:55 AM,71.6,71.6,100,29.96,4.0,Calm,Calm,-,N/A,,Clear,0,2013-08-30 08:55:00
4:15 AM,73.4,71.6,94,29.96,4.0,Calm,Calm,-,N/A,,Clear,0,2013-08-30 09:15:00
4:35 AM,71.6,71.6,100,29.96,4.0,Calm,Calm,-,N/A,,Clear,0,2013-08-30 09:35:00
4:55 AM,73.4,71.6,94,29.96,4.0,Calm,Calm,-,N/A,,Clear,0,2013-08-30 09:55:00
5:15 AM,71.6,71.6,100,29.96,4.0,Calm,Calm,-,N/A,,Clear,0,2013-08-30 10:15:00
5:35 AM,71.6,71.6,100,29.95,4.0,Calm,Calm,-,N/A,,Clear,0,2013-08-30 10:35:00
5:55 AM,73.4,71.6,94,29.96,4.0,Calm,Calm,-,N/A,,Clear,0,2013-08-30 10:55:00
6:15 AM,73.4,71.6,94,29.95,4.0,SSE,3.5,-,N/A,,Scattered Clouds,150,2013-08-30 11:15:00
6:35 AM,71.6,71.6,100,29.96,3.0,Calm,Calm,-,N/A,,Clear,0,2013-08-30 11:35:00
6:55 AM,73.4,71.6,94,29.96,2.5,SE,3.5,-,N/A,,Clear,140,2013-08-30 11:55:00
7:15 AM,73.4,73.4,100,29.96,3.0,South,3.5,-,N/A,,Clear,170,2013-08-30 12:15:00
7:35 AM,75.2,73.4,94,29.96,3.0,SSE,3.5,-,N/A,,Clear,160,2013-08-30 12:35:00
7:55 AM,77.0,75.2,94,29.96,4.0,South,3.5,-,N/A,,Clear,180,2013-08-30 12:55:00
9:15 AM,84.2,78.8,84,29.95,7.0,SW,5.8,-,N/A,,Clear,220,2013-08-30 14:15:00
9:35 AM,87.8,78.8,75,29.95,7.0,SW,4.6,-,N/A,,Clear,220,2013-08-30 14:35:00
9:55 AM,89.6,78.8,70,29.94,10.0,SW,4.6,-,N/A,,Clear,230,2013-08-30 14:55:00
10:15 AM,91.4,78.8,66,29.94,10.0,SW,4.6,-,N/A,,Clear,230,2013-08-30 15:15:00
10:35 AM,91.4,78.8,66,29.93,10.0,WSW,5.8,-,N/A,,Clear,250,2013-08-30 15:35:00
10:55 AM,93.2,78.8,63,29.93,10.0,WSW,6.9,-,N/A,,Clear,240,2013-08-30 15:55:00
11:15 AM,93.2,78.8,63,29.92,10.0,SW,6.9,-,N/A,,Clear,230,2013-08-30 16:15:00
11:35 AM,95.0,78.8,59,29.92,10.0,WSW,5.8,-,N/A,,Clear,240,2013-08-30 16:35:00
11:55 AM,96.8,77.0,53,29.91,10.0,WSW,6.9,-,N/A,,Clear,240,2013-08-30 16:55:00
12:15 PM,96.8,77.0,53,29.91,10.0,WSW,8.1,-,N/A,,Clear,250,2013-08-30 17:15:00
12:35 PM,96.8,77.0,53,29.91,10.0,West,6.9,-,N/A,,Clear,260,2013-08-30 17:35:00
12:55 PM,96.8,77.0,53,29.90,10.0,WSW,5.8,-,N/A,,Clear,250,2013-08-30 17:55:00
1:15 PM,98.6,77.0,50,29.90,10.0,West,8.1,-,N/A,,Clear,260,2013-08-30 18:15:00
1:35 PM,98.6,75.2,47,29.89,10.0,West,10.4,-,N/A,,Clear,280,2013-08-30 18:35:00
1:55 PM,98.6,75.2,47,29.89,10.0,West,6.9,-,N/A,,Clear,260,2013-08-30 18:55:00
2:15 PM,98.6,75.2,47,29.88,10.0,West,8.1,-,N/A,,Clear,260,2013-08-30 19:15:00
2:35 PM,98.6,75.2,47,29.88,10.0,WSW,8.1,-,N/A,,Clear,240,2013-08-30 19:35:00
2:55 PM,98.6,75.2,47,29.87,10.0,WSW,8.1,-,N/A,,Clear,250,2013-08-30 19:55:00
3:15 PM,100.4,75.2,44,29.87,10.0,West,3.5,-,N/A,,Clear,260,2013-08-30 20:15:00
3:35 PM,96.8,75.2,50,29.86,10.0,West,3.5,-,N/A,,Clear,260,2013-08-30 20:35:00
3:55 PM,98.6,73.4,44,29.86,10.0,West,5.8,-,N/A,,Clear,260,2013-08-30 20:55:00
4:15 PM,100.4,73.4,42,29.85,10.0,WSW,6.9,-,N/A,,Clear,250,2013-08-30 21:15:00
4:35 PM,98.6,75.2,47,29.84,10.0,WSW,4.6,-,N/A,,Clear,240,2013-08-30 21:35:00
4:55 PM,98.6,75.2,47,29.84,10.0,WSW,6.9,-,N/A,,Clear,240,2013-08-30 21:55:00
5:15 PM,98.6,75.2,47,29.83,10.0,WSW,3.5,-,N/A,,Clear,250,2013-08-30 22:15:00
5:35 PM,96.8,75.2,50,29.83,10.0,WSW,4.6,-,N/A,,Clear,240,2013-08-30 22:35:00
5:55 PM,96.8,77.0,53,29.83,10.0,SW,3.5,-,N/A,,Clear,230,2013-08-30 22:55:00
6:15 PM,95.0,77.0,56,29.82,10.0,SW,3.5,-,N/A,,Clear,230,2013-08-30 23:15:00
6:35 PM,93.2,77.0,59,29.82,10.0,SW,3.5,-,N/A,,Clear,220,2013-08-30 23:35:00
6:55 PM,89.6,77.0,66,29.82,10.0,SSW,4.6,-,N/A,,Clear,210,2013-08-30 23:55:00
7:15 PM,87.8,77.0,70,29.82,10.0,SSW,3.5,-,N/A,,Clear,200,2013-08-31 00:15:00
7:35 PM,86.0,77.0,74,29.83,10.0,Calm,Calm,-,N/A,,Clear,0,2013-08-31 00:35:00
7:55 PM,82.4,78.8,89,29.84,10.0,South,3.5,-,N/A,,Clear,190,2013-08-31 00:55:00
8:15 PM,82.4,78.8,89,29.84,10.0,Calm,Calm,-,N/A,,Clear,0,2013-08-31 01:15:00
8:35 PM,82.4,78.8,89,29.84,10.0,Calm,Calm,-,N/A,,Clear,0,2013-08-31 01:35:00
8:55 PM,82.4,78.8,89,29.84,10.0,South,4.6,-,N/A,,Scattered Clouds,190,2013-08-31 01:55:00
9:15 PM,84.2,75.2,74,29.84,10.0,South,5.8,-,N/A,,Scattered Clouds,190,2013-08-31 02:15:00
9:35 PM,82.4,75.2,79,29.84,10.0,South,5.8,-,N/A,,Clear,190,2013-08-31 02:35:00
9:55 PM,82.4,75.2,79,29.83,10.0,South,4.6,-,N/A,,Clear,190,2013-08-31 02:55:00
10:15 PM,82.4,75.2,79,29.84,10.0,South,4.6,-,N/A,,Clear,180,2013-08-31 03:15:00
10:35 PM,80.6,75.2,84,29.84,10.0,South,3.5,-,N/A,,Clear,170,2013-08-31 03:35:00
10:55 PM,78.8,75.2,89,29.84,10.0,Calm,Calm,-,N/A,,Clear,0,2013-08-31 03:55:00
11:15 PM,78.8,75.2,89,29.84,10.0,Calm,Calm,-,N/A,,Clear,0,2013-08-31 04:15:00
11:35 PM,78.8,75.2,89,29.84,10.0,Calm,Calm,-,N/A,,Clear,0,2013-08-31 04:35:00
11:55 PM,78.8,75.2,89,29.83,10.0,Calm,Calm,-,N/A,,Clear,0,2013-08-31 04:55:00